Weather History for Sanford, NC

Change the Weather History Date:

Thursday, January 12, 2012

  Actual Average (KRDU) Record (KRDU)
Temperature  
Mean Temperature 52 °F 40 °F  
Max Temperature 59 °F 50 °F 76 °F (1890)
Min Temperature 44 °F 31 °F 6 °F (1981)
Degree Days  
Heating Degree Days 14 24  
Month to date heating degree days 294  
Since 1 July heating degree days 1545  
Cooling Degree Days 0 0  
Month to date cooling degree days 0  
Year to date cooling degree days 0  
Growing Degree Days 2 (Base 50)    
Moisture  
Dew Point 44 °F    
Average Humidity 77    
Maximum Humidity 93    
Minimum Humidity 59    
Precipitation  
Precipitation 0.00 in 0.12 in 1.62 in (1915)
Month to date precipitation 1.34  
Year to date precipitation 1.34  
Snow  
Snow 0.00 in 0.10 in 1.50 in (1893)
Month to date snowfall 0.9  
Since 1 July snowfall 1.6  
Snow Depth -    
Sea Level Pressure  
Sea Level Pressure 29.61 in    
Wind  
Wind Speed 8 mph (SSW)    
Max Wind Speed 17 mph    
Max Gust Speed 24 mph    
Visibility 10 miles    
Events      
T = Trace of Precipitation, MM = Missing Value Source: NWS Daily Summary

Daily Weather History Graph

Daily Weather History Graph

Search for Another Location

Airport:

Trip Planner

Search our weather history database for the weather conditions in past years. The results will help you decide how hot, cold, wet, or windy it might be!

Date:

Astronomy

Jan. 12, 2012 Rise Set
Actual Time 7:26 AM EST 5:23 PM EST
Civil Twilight 6:58 AM EST 5:51 PM EST
Nautical Twilight 6:26 AM EST 6:22 PM EST
Astronomical Twilight 5:55 AM EST 6:53 PM EST
Moon 9:16 PM EST (1/12) 9:17 AM EST (1/12)
Length of Visible Light 10h 53m
Length of Day
9h 57m
Waning Gibbous, 87% of the Moon is Illuminated
Jan 12
Waning Gibbous
Jan 16
Last Quarter
Jan 23
New
Jan 30
First Quarter
Feb 7
Full

Hourly Weather History & Observations

Time (EST) Temp. Windchill Dew Point Humidity Pressure Visibility Wind Dir Wind Speed Gust Speed Precip Events Conditions
12:15 AM 51.8 °F - 44.6 °F 76% 29.56 in 10.0 mi SW 6.9 mph - N/A   Clear
12:35 AM 51.8 °F - 44.6 °F 76% 29.56 in 10.0 mi SW 9.2 mph - N/A   Clear
12:55 AM 51.8 °F - 44.6 °F 76% 29.58 in 10.0 mi SW 5.8 mph - N/A   Clear
1:15 AM 51.8 °F - 44.6 °F 76% 29.58 in 10.0 mi SW 8.1 mph - N/A   Clear
1:35 AM 50.0 °F - 44.6 °F 82% 29.58 in 10.0 mi SW 5.8 mph - N/A   Clear
1:55 AM 50.0 °F - 44.6 °F 82% 29.58 in 10.0 mi SW 8.1 mph - N/A   Clear
2:15 AM 50.0 °F - 44.6 °F 82% 29.59 in 10.0 mi SSW 8.1 mph - N/A   Clear
2:35 AM 50.0 °F - 44.6 °F 82% 29.60 in 10.0 mi SW 6.9 mph - N/A   Clear
2:55 AM 50.0 °F - 44.6 °F 82% 29.60 in 10.0 mi SW 8.1 mph - N/A   Clear
3:15 AM 50.0 °F - 44.6 °F 82% 29.60 in 10.0 mi SSW 6.9 mph - N/A   Clear
3:35 AM 48.2 °F - 44.6 °F 87% 29.60 in 10.0 mi SW 5.8 mph - N/A   Clear
3:55 AM 50.0 °F - 44.6 °F 82% 29.61 in 10.0 mi SW 8.1 mph - N/A   Clear
4:15 AM 48.2 °F - 44.6 °F 87% 29.60 in 10.0 mi SSW 5.8 mph - N/A   Clear
4:35 AM 46.4 °F 44.3 °F 44.6 °F 93% 29.60 in 10.0 mi SSW 4.6 mph - N/A   Clear
4:55 AM 46.4 °F 43.5 °F 44.6 °F 93% 29.61 in 10.0 mi SSW 5.8 mph - N/A   Clear
5:15 AM 46.4 °F 42.4 °F 42.8 °F 87% 29.62 in 10.0 mi SSW 8.1 mph - N/A   Clear
5:35 AM 46.4 °F 42.4 °F 42.8 °F 87% 29.61 in 10.0 mi SSW 8.1 mph - N/A   Clear
5:55 AM 46.4 °F 42.9 °F 42.8 °F 87% 29.62 in 10.0 mi SSW 6.9 mph - N/A   Clear
6:15 AM 46.4 °F 42.4 °F 42.8 °F 87% 29.63 in 10.0 mi SSW 8.1 mph - N/A   Clear
6:35 AM 46.4 °F 42.9 °F 42.8 °F 87% 29.63 in 10.0 mi SW 6.9 mph - N/A   Clear
6:55 AM 46.4 °F 43.5 °F 42.8 °F 87% 29.63 in 10.0 mi SSW 5.8 mph - N/A   Clear
7:15 AM 44.6 °F 41.4 °F 42.8 °F 93% 29.63 in 10.0 mi SSW 5.8 mph - N/A   Clear
7:35 AM 44.6 °F 41.4 °F 42.8 °F 93% 29.63 in 10.0 mi SSW 5.8 mph - N/A   Clear
7:55 AM 44.6 °F 41.4 °F 42.8 °F 93% 29.65 in 10.0 mi SSW 5.8 mph - N/A   Clear
8:15 AM 44.6 °F 40.2 °F 42.8 °F 93% 29.65 in 10.0 mi SSW 8.1 mph - N/A   Clear
8:35 AM 46.4 °F 41.9 °F 42.8 °F 87% 29.66 in 10.0 mi SSW 9.2 mph - N/A   Clear
8:55 AM 46.4 °F 42.4 °F 42.8 °F 87% 29.66 in 10.0 mi SSW 8.1 mph - N/A   Clear
9:15 AM 46.4 °F 42.9 °F 42.8 °F 87% 29.66 in 10.0 mi SSW 6.9 mph - N/A   Clear
9:35 AM 50.0 °F - 44.6 °F 82% 29.66 in 10.0 mi SW 8.1 mph - N/A   Clear
9:55 AM 50.0 °F - 44.6 °F 82% 29.67 in 10.0 mi SSW 10.4 mph - N/A   Clear
10:15 AM 50.0 °F - 44.6 °F 82% 29.68 in 10.0 mi SSW 13.8 mph 18.4 mph N/A   Clear
10:35 AM 50.0 °F - 44.6 °F 82% 29.68 in 10.0 mi SW 9.2 mph - N/A   Clear
10:55 AM 51.8 °F - 44.6 °F 76% 29.68 in 10.0 mi SW 12.7 mph 23.0 mph N/A   Scattered Clouds
11:15 AM 51.8 °F - 44.6 °F 76% 29.67 in 10.0 mi SW 11.5 mph 20.7 mph N/A   Mostly Cloudy
11:35 AM 53.6 °F - 44.6 °F 72% 29.66 in 10.0 mi SW 10.4 mph 17.3 mph N/A   Scattered Clouds
11:55 AM 53.6 °F - 44.6 °F 72% 29.63 in 10.0 mi SSW 11.5 mph - N/A   Scattered Clouds
12:15 PM 53.6 °F - 44.6 °F 72% 29.63 in 10.0 mi SW 13.8 mph - N/A   Scattered Clouds
12:35 PM 55.4 °F - 44.6 °F 67% 29.63 in 10.0 mi SSW 11.5 mph 18.4 mph N/A   Scattered Clouds
12:55 PM 55.4 °F - 44.6 °F 67% 29.63 in 10.0 mi SSW 15.0 mph 19.6 mph N/A   Scattered Clouds
1:15 PM 55.4 °F - 44.6 °F 67% 29.63 in 10.0 mi SSW 11.5 mph 20.7 mph N/A   Scattered Clouds
1:35 PM 55.4 °F - 44.6 °F 67% 29.62 in 10.0 mi SSW 11.5 mph 21.9 mph N/A   Scattered Clouds
1:55 PM 55.4 °F - 44.6 °F 67% 29.60 in 10.0 mi SSW 17.3 mph - N/A   Mostly Cloudy
2:15 PM 57.2 °F - 44.6 °F 63% 29.60 in 10.0 mi SW 11.5 mph 20.7 mph N/A   Scattered Clouds
2:35 PM 57.2 °F - 44.6 °F 63% 29.60 in 10.0 mi SW 10.4 mph 21.9 mph N/A   Scattered Clouds
2:55 PM 59.0 °F - 44.6 °F 59% 29.59 in 10.0 mi SSW 13.8 mph 19.6 mph N/A   Scattered Clouds
3:15 PM 59.0 °F - 46.4 °F 63% 29.59 in 10.0 mi South 15.0 mph 20.7 mph N/A   Clear
3:35 PM 59.0 °F - 46.4 °F 63% 29.59 in 10.0 mi SSW 13.8 mph 17.3 mph N/A   Scattered Clouds
3:55 PM 59.0 °F - 46.4 °F 63% 29.59 in 10.0 mi SSW 10.4 mph - N/A   Scattered Clouds
4:35 PM 59.0 °F - 44.6 °F 59% 29.60 in 10.0 mi SSW 12.7 mph - N/A   Clear
4:55 PM 57.2 °F - 44.6 °F 63% 29.61 in 10.0 mi SSW 11.5 mph - N/A   Clear
5:15 PM 55.4 °F - 44.6 °F 67% 29.61 in 10.0 mi SSW 9.2 mph - N/A   Clear
5:35 PM 55.4 °F - 44.6 °F 67% 29.61 in 10.0 mi SSW 6.9 mph - N/A   Clear
5:55 PM 53.6 °F - 44.6 °F 72% 29.61 in 10.0 mi South 5.8 mph - N/A   Clear
6:15 PM 51.8 °F - 44.6 °F 76% 29.61 in 10.0 mi South 4.6 mph - N/A   Clear
6:55 PM 51.8 °F - 44.6 °F 76% 29.61 in 10.0 mi South 4.6 mph - N/A   Scattered Clouds
7:15 PM 51.8 °F - 44.6 °F 76% 29.61 in 10.0 mi Calm Calm - N/A   Mostly Cloudy
7:35 PM 51.8 °F - 44.6 °F 76% 29.61 in 10.0 mi Calm Calm - N/A   Mostly Cloudy
8:15 PM 51.8 °F - 44.6 °F 76% 29.58 in 10.0 mi South 5.8 mph - N/A   Scattered Clouds
8:35 PM 53.6 °F - 44.6 °F 72% 29.57 in 10.0 mi South 5.8 mph - N/A   Scattered Clouds
8:55 PM 53.6 °F - 44.6 °F 72% 29.56 in 10.0 mi South 9.2 mph - N/A   Mostly Cloudy
9:15 PM 53.6 °F - 44.6 °F 72% 29.56 in 10.0 mi South 11.5 mph 19.6 mph N/A   Overcast
9:35 PM 53.6 °F - 44.6 °F 72% 29.55 in 10.0 mi SSE 15.0 mph 24.2 mph N/A   Overcast
10:15 PM 53.6 °F - 44.6 °F 72% 29.54 in 10.0 mi South 11.5 mph - N/A   Mostly Cloudy
10:35 PM 53.6 °F - 44.6 °F 72% 29.55 in 10.0 mi South 9.2 mph 16.1 mph N/A   Scattered Clouds
10:55 PM 55.4 °F - 44.6 °F 67% 29.55 in 10.0 mi SW 6.9 mph - N/A   Mostly Cloudy
11:15 PM 55.4 °F - 46.4 °F 72% 29.55 in 10.0 mi SW 9.2 mph - N/A   Overcast
11:35 PM 53.6 °F - 46.4 °F 77% 29.55 in 10.0 mi SW 9.2 mph - N/A   Mostly Cloudy
11:55 PM 55.4 °F - 46.4 °F 72% 29.54 in 10.0 mi SSW 10.4 mph 20.7 mph N/A   Scattered Clouds